GW4545 Weather Reports


Display with metric or nautical units.
time (UTC)temp
F
wind
direction
speed
MPH
gust
MPH
rain 1hr
in
rain 24hr
in
rain mn
in
humidity
%
barometer
mb
20260507053054 52 336 3.0 8.0 0.00 0.00 0.00 81 1022.5
20260507051554 52 46 4.0 9.0 0.00 0.00 0.00 81 1022.5
20260507050050 53 348 1.0 6.0 0.00 0.00 0.00 81 1022.3
20260507044551 54 345 3.0 8.0 0.00 0.00 0.00 80 1022.4
20260507043045 55 352 1.0 5.0 0.00 0.00 0.00 79 1022.5
20260507041558 55 304 2.0 7.0 0.00 0.00 0.00 79 1022.5
20260507040043 56 311 2.0 11.0 0.00 0.00 0.00 78 1022.2
20260507034546 56 0 2.0 8.0 0.00 0.00 0.00 77 1022.0
20260507033043 56 350 1.0 4.0 0.00 0.00 0.00 77 1021.9
20260507031543 57 352 1.0 6.0 0.00 0.00 0.00 76 1021.7
20260507030050 58 309 2.0 9.0 0.00 0.00 0.00 75 1021.6
20260507024551 59 297 3.0 6.0 0.00 0.00 0.00 73 1021.4
20260507023047 61 352 1.0 8.0 0.00 0.00 0.00 72 1021.4
20260507021559 62 289 1.0 6.0 0.00 0.00 0.00 70 1021.4
20260507020106 62 285 3.0 9.0 0.00 0.00 0.00 69 1021.4
20260507014618 64 298 4.0 9.0 0.00 0.00 0.00 66 1021.4
20260507013050 64 293 3.0 9.0 0.00 0.00 0.00 67 1021.4
20260507011549 65 318 3.0 9.0 0.00 0.00 0.00 66 1021.5
20260507010045 66 149 3.0 9.0 0.00 0.00 0.00 66 1021.5
20260507004543 67 331 2.0 8.0 0.00 0.00 0.00 69 1021.5
20260507003043 66 5 4.0 11.0 0.00 0.00 0.00 68 1021.4
20260507001557 67 292 2.0 11.0 0.00 0.00 0.00 66 1021.2
20260507000054 67 22 4.0 9.0 0.00 0.00 0.00 66 1021.2
20260506234601 68 340 5.0 8.0 0.00 0.00 0.00 63 1021.3
20260506233050 67 9 2.0 8.0 0.00 0.00 0.00 69 1021.3
20260506231547 66 25 2.0 8.0 0.00 0.00 0.00 70 1021.4
20260506230054 66 19 2.0 5.0 0.00 0.00 0.00 71 1021.4
20260506224552 66 39 2.0 5.0 0.00 0.00 0.00 69 1021.5
20260506223040 66 23 1.0 6.0 0.00 0.00 0.00 72 1021.7
20260506221559 67 28 1.0 4.0 0.00 0.00 0.00 73 1021.5
20260506220049 66 0 1.0 4.0 0.00 0.00 0.00 71 1021.5
20260506214547 66 91 0.0 7.0 0.00 0.00 0.00 74 1021.6
20260506213055 67 42 2.0 4.0 0.00 0.00 0.00 71 1021.6
20260506211553 66 82 3.0 7.0 0.00 0.00 0.00 72 1021.7
20260506210051 66 0 1.0 6.0 0.00 0.00 0.00 73 1021.8
20260506204548 67 352 2.0 8.0 0.00 0.00 0.00 71 1021.6
20260506203048 65 316 3.0 9.0 0.00 0.00 0.00 75 1021.8
20260506201550 64 352 1.0 5.0 0.00 0.00 0.00 76 1021.9
20260506200046 65 71 2.0 6.0 0.00 0.00 0.00 73 1021.8
20260506194550 65 107 2.0 5.0 0.00 0.00 0.00 74 1021.8
20260506193050 63 0 2.0 7.0 0.00 0.00 0.00 75 1022.0
20260506191542 63 125 2.0 9.0 0.00 0.00 0.00 78 1022.1
20260506190050 62 130 2.0 6.0 0.00 0.00 0.00 79 1022.0
20260506184546 62 49 2.0 5.0 0.00 0.00 0.00 78 1022.0
20260506183042 62 36 1.0 9.0 0.00 0.00 0.00 80 1022.0
20260506181556 62 62 2.0 6.0 0.00 0.00 0.00 76 1022.0
20260506180051 62 48 2.0 9.0 0.00 0.00 0.00 78 1021.8
20260506174544 62 245 2.0 7.0 0.00 0.00 0.00 80 1021.7
20260506173114 59 0 1.0 7.0 0.00 0.00 0.00 83 1021.7
20260506171556 58 120 2.0 4.0 0.00 0.00 0.00 82 1021.8
20260506164549 58 30 1.0 7.0 0.00 0.00 0.00 82 1021.8
20260506163055 58 0 1.0 3.0 0.00 0.00 0.00 81 1021.8
20260506161548 57 352 0.0 3.0 0.00 0.00 0.00 82 1021.6
20260506160049 57 9 0.0 3.0 0.00 0.00 0.00 83 1021.7
20260506154605 56 0 1.0 3.0 0.00 0.00 0.00 82 1021.5
20260506153049 56 0 1.0 3.0 0.00 0.00 0.00 82 1021.3
20260506151542 56 19 1.0 3.0 0.00 0.00 0.00 84 1020.9
20260506150050 55 352 1.0 4.0 0.00 0.00 0.00 85 1021.2
20260506144552 55 0 0.0 4.0 0.00 0.00 0.00 87 1021.4
20260506143048 54 5 1.0 4.0 0.00 0.00 0.00 88 1021.6
20260506141542 53 5 0.0 5.0 0.00 0.00 0.00 89 1021.4
20260506140042 53 0 0.0 2.0 0.00 0.00 0.00 92 1021.2
20260506134550 52 250 0.0 0.0 0.00 0.00 0.00 92 1020.8
20260506133058 52 0 0.0 2.0 0.00 0.00 0.00 93 1020.8
20260506131549 51 0 0.0 1.0 0.00 0.00 0.00 94 1020.7
20260506130052 51 280 0.0 2.0 0.00 0.00 0.00 94 1020.5
20260506124544 51 280 1.0 3.0 0.00 0.00 0.00 93 1020.3
20260506123050 51 278 0.0 2.0 0.00 0.00 0.00 90 1020.0
20260506121548 53 0 0.0 0.0 0.00 0.00 0.00 89 1020.1
20260506120048 54 0 0.0 0.0 0.00 0.00 0.00 87 1020.1
20260506114549 55 0 0.0 1.0 0.00 0.00 0.00 87 1020.0
20260506113042 55 352 0.0 3.0 0.00 0.00 0.00 86 1020.0
20260506111547 55 352 1.0 3.0 0.00 0.00 0.00 86 1020.0
20260506110047 55 5 1.0 5.0 0.00 0.00 0.00 87 1019.9
20260506104608 55 5 2.0 4.0 0.00 0.00 0.00 86 1019.7
20260506103045 55 5 1.0 7.0 0.00 0.00 0.00 87 1019.5
20260506101549 55 313 1.0 8.0 0.00 0.00 0.00 87 1019.5
20260506100045 55 0 1.0 6.0 0.00 0.00 0.00 87 1019.2
20260506094543 55 11 1.0 7.0 0.00 0.00 0.00 87 1019.0
20260506093040 55 337 2.0 6.0 0.00 0.00 0.00 87 1018.9
20260506091548 55 31 1.0 4.0 0.00 0.00 0.00 87 1019.0
20260506090048 55 0 0.0 4.0 0.00 0.00 0.00 87 1018.9
20260506084545 55 9 0.0 4.0 0.00 0.00 0.00 87 1018.9
20260506083048 55 14 1.0 4.0 0.00 0.00 0.00 87 1018.9
20260506081541 55 342 0.0 4.0 0.00 0.00 0.00 88 1018.9
20260506073050 55 0 0.0 2.0 0.00 0.00 0.00 92 1018.6
20260506071545 55 0 0.0 0.0 0.00 0.00 0.00 93 1018.5
20260506061547 57 0 0.0 0.0 0.00 0.00 0.00 91 1018.1